Time,TemperatureF,DewpointF,PressureIn,WindDirection,WindDirectionDegrees,WindSpeedMPH,WindSpeedGustMPH,Humidity,HourlyPrecipIn,Conditions,Clouds,dailyrainin,SoftwareType,DateUTC
2013-05-10 00:05:00,46.0,40.0,30.20,NE,49,0.0,0.0,79,0.00,,,0.09,weatherlink.com 1.10,2013-05-10 06:05:00,
2013-05-10 00:20:00,45.2,40.0,30.20,NE,49,0.0,1.0,81,0.00,,,0.00,weatherlink.com 1.10,2013-05-10 06:20:00,
2013-05-10 00:35:00,45.0,40.0,30.20,NE,49,0.0,0.0,83,0.00,,,0.00,weatherlink.com 1.10,2013-05-10 06:35:00,
2013-05-10 00:50:00,45.1,40.0,30.20,NE,49,0.0,0.0,83,0.00,,,0.00,weatherlink.com 1.10,2013-05-10 06:50:00,
2013-05-10 01:05:00,44.9,40.0,30.19,NE,49,0.0,0.0,84,0.00,,,0.00,weatherlink.com 1.10,2013-05-10 07:05:00,
2013-05-10 01:20:00,44.6,40.0,30.19,NE,49,0.0,0.0,83,0.00,,,0.00,weatherlink.com 1.10,2013-05-10 07:20:00,
2013-05-10 01:35:00,44.8,40.0,30.19,NE,49,0.0,0.0,83,0.00,,,0.00,weatherlink.com 1.10,2013-05-10 07:35:00,
2013-05-10 01:50:00,45.3,40.0,30.19,NE,49,0.0,0.0,82,0.00,,,0.00,weatherlink.com 1.10,2013-05-10 07:50:00,
2013-05-10 02:05:00,45.8,40.0,30.18,NE,49,0.0,0.0,80,0.00,,,0.00,weatherlink.com 1.10,2013-05-10 08:05:00,
2013-05-10 02:20:00,46.0,40.0,30.18,NE,49,0.0,0.0,79,0.00,,,0.00,weatherlink.com 1.10,2013-05-10 08:20:00,
2013-05-10 02:35:00,46.2,40.0,30.18,NE,49,0.0,0.0,79,0.00,,,0.00,weatherlink.com 1.10,2013-05-10 08:35:00,
2013-05-10 02:50:00,46.3,40.0,30.17,NE,49,0.0,0.0,78,0.00,,,0.00,weatherlink.com 1.10,2013-05-10 08:50:00,
2013-05-10 03:05:00,46.1,40.0,30.17,NE,49,0.0,0.0,79,0.00,,,0.00,weatherlink.com 1.10,2013-05-10 09:05:00,
2013-05-10 03:20:00,45.0,39.0,30.18,NE,49,0.0,0.0,80,0.00,,,0.00,weatherlink.com 1.10,2013-05-10 09:20:00,
2013-05-10 03:35:00,44.9,39.0,30.18,NE,48,0.0,2.0,81,0.00,,,0.00,weatherlink.com 1.10,2013-05-10 09:35:00,
2013-05-10 03:50:00,45.3,40.0,30.17,West,264,1.0,2.0,80,0.00,,,0.00,weatherlink.com 1.10,2013-05-10 09:50:00,
2013-05-10 04:05:00,45.0,39.0,30.17,West,264,0.0,2.0,79,0.00,,,0.00,weatherlink.com 1.10,2013-05-10 10:05:00,
2013-05-10 04:20:00,43.7,39.0,30.17,West,264,0.0,0.0,83,0.00,,,0.00,weatherlink.com 1.10,2013-05-10 10:20:00,
2013-05-10 04:35:00,44.2,39.0,30.16,West,264,0.0,3.0,82,0.00,,,0.00,weatherlink.com 1.10,2013-05-10 10:35:00,
2013-05-10 04:50:00,44.7,39.0,30.16,West,264,0.0,0.0,81,0.00,,,0.00,weatherlink.com 1.10,2013-05-10 10:50:00,
2013-05-10 05:06:00,44.7,39.0,30.15,West,264,0.0,1.0,80,0.00,,,0.00,weatherlink.com 1.10,2013-05-10 11:06:00,
2013-05-10 05:21:00,45.6,39.0,30.16,West,264,0.0,1.0,78,0.00,,,0.00,weatherlink.com 1.10,2013-05-10 11:21:00,
2013-05-10 05:36:00,44.3,39.0,30.16,West,264,0.0,0.0,81,0.00,,,0.00,weatherlink.com 1.10,2013-05-10 11:36:00,
2013-05-10 05:51:00,45.4,39.0,30.16,West,264,0.0,1.0,78,0.00,,,0.00,weatherlink.com 1.10,2013-05-10 11:51:00,
2013-05-10 06:06:00,46.4,40.0,30.16,NW,309,0.0,2.0,77,0.00,,,0.00,weatherlink.com 1.10,2013-05-10 12:06:00,
2013-05-10 06:21:00,48.3,40.0,30.16,WNW,292,1.0,3.0,73,0.00,,,0.00,weatherlink.com 1.10,2013-05-10 12:21:00,
2013-05-10 06:36:00,49.4,40.0,30.16,WNW,303,1.0,5.0,70,0.00,,,0.00,weatherlink.com 1.10,2013-05-10 12:36:00,
2013-05-10 06:51:00,50.3,40.0,30.16,NW,318,0.0,3.0,68,0.00,,,0.00,weatherlink.com 1.10,2013-05-10 12:51:00,
2013-05-10 07:06:00,51.3,41.0,30.16,NNW,347,0.0,3.0,67,0.00,,,0.00,weatherlink.com 1.10,2013-05-10 13:06:00,
2013-05-10 07:21:00,52.6,41.0,30.16,NW,325,2.0,4.0,64,0.00,,,0.00,weatherlink.com 1.10,2013-05-10 13:21:00,
2013-05-10 07:36:00,53.6,41.0,30.16,NW,325,0.0,3.0,62,0.00,,,0.00,weatherlink.com 1.10,2013-05-10 13:36:00,
2013-05-10 07:51:00,54.8,41.0,30.16,WNW,299,0.0,4.0,60,0.00,,,0.00,weatherlink.com 1.10,2013-05-10 13:51:00,
2013-05-10 08:06:00,55.6,41.0,30.16,NNW,331,2.0,6.0,59,0.00,,,0.00,weatherlink.com 1.10,2013-05-10 14:06:00,
2013-05-10 08:21:00,56.2,43.0,30.16,NW,309,2.0,3.0,61,0.00,,,0.00,weatherlink.com 1.10,2013-05-10 14:21:00,
2013-05-10 08:36:00,57.4,43.0,30.16,NNE,18,0.0,2.0,59,0.00,,,0.00,weatherlink.com 1.10,2013-05-10 14:36:00,
2013-05-10 08:51:00,58.8,43.0,30.16,NE,46,0.0,4.0,56,0.00,,,0.00,weatherlink.com 1.10,2013-05-10 14:51:00,
2013-05-10 09:06:00,59.6,44.0,30.16,North,5,2.0,6.0,56,0.00,,,0.00,weatherlink.com 1.10,2013-05-10 15:06:00,
2013-05-10 09:21:00,60.3,43.0,30.16,NNW,340,2.0,4.0,53,0.00,,,0.00,weatherlink.com 1.10,2013-05-10 15:21:00,
2013-05-10 09:36:00,60.8,42.0,30.16,ESE,103,0.0,9.0,51,0.00,,,0.00,weatherlink.com 1.10,2013-05-10 15:36:00,
2013-05-10 09:51:00,62.3,42.0,30.15,NW,319,2.0,5.0,48,0.00,,,0.00,weatherlink.com 1.10,2013-05-10 15:51:00,
2013-05-10 10:06:00,63.9,44.0,30.15,North,5,0.0,4.0,48,0.00,,,0.00,weatherlink.com 1.10,2013-05-10 16:06:00,
2013-05-10 10:21:00,64.4,44.0,30.16,NNE,28,1.0,5.0,47,0.00,,,0.00,weatherlink.com 1.10,2013-05-10 16:21:00,
2013-05-10 10:37:00,64.8,43.0,30.16,North,5,1.0,4.0,45,0.00,,,0.00,weatherlink.com 1.10,2013-05-10 16:37:00,
2013-05-10 10:52:00,65.3,42.0,30.17,NNW,332,4.0,5.0,43,0.00,,,0.00,weatherlink.com 1.10,2013-05-10 16:52:00,
2013-05-10 11:07:00,65.5,41.0,30.17,East,80,3.0,6.0,41,0.00,,,0.00,weatherlink.com 1.10,2013-05-10 17:07:00,
2013-05-10 11:22:00,65.8,43.0,30.17,East,90,1.0,5.0,44,0.00,,,0.00,weatherlink.com 1.10,2013-05-10 17:22:00,
2013-05-10 11:37:00,64.4,41.0,30.17,NW,310,3.0,5.0,42,0.00,,,0.00,weatherlink.com 1.10,2013-05-10 17:37:00,
2013-05-10 11:52:00,63.3,38.0,30.17,WNW,293,7.0,7.0,39,0.00,,,0.00,weatherlink.com 1.10,2013-05-10 17:52:00,
2013-05-10 12:07:00,64.8,35.0,30.17,WNW,303,7.0,11.0,33,0.00,,,0.00,weatherlink.com 1.10,2013-05-10 18:07:00,
2013-05-10 12:22:00,64.5,32.0,30.16,WSW,238,8.0,9.0,30,0.00,,,0.00,weatherlink.com 1.10,2013-05-10 18:22:00,
2013-05-10 12:37:00,66.5,30.0,30.16,NW,313,7.0,11.0,25,0.00,,,0.00,weatherlink.com 1.10,2013-05-10 18:37:00,
2013-05-10 12:52:00,67.0,27.0,30.16,North,11,2.0,10.0,22,0.00,,,0.00,weatherlink.com 1.10,2013-05-10 18:52:00,
2013-05-10 13:07:00,67.5,28.0,30.17,NNW,328,6.0,11.0,23,0.00,,,0.00,weatherlink.com 1.10,2013-05-10 19:07:00,
2013-05-10 13:22:00,66.9,30.0,30.17,NNW,345,5.0,10.0,25,0.00,,,0.00,weatherlink.com 1.10,2013-05-10 19:22:00,
2013-05-10 13:37:00,66.6,31.0,30.16,NNW,330,5.0,14.0,27,0.00,,,0.00,weatherlink.com 1.10,2013-05-10 19:37:00,
2013-05-10 13:52:00,67.7,31.0,30.17,NE,38,3.0,9.0,25,0.00,,,0.00,weatherlink.com 1.10,2013-05-10 19:52:00,
2013-05-10 14:07:00,67.0,28.0,30.17,NNE,16,2.0,14.0,23,0.00,,,0.00,weatherlink.com 1.10,2013-05-10 20:07:00,
2013-05-10 14:22:00,68.9,29.0,30.16,NE,36,4.0,11.0,23,0.00,,,0.00,weatherlink.com 1.10,2013-05-10 20:22:00,
2013-05-10 14:37:00,69.1,31.0,30.15,NW,317,2.0,8.0,24,0.00,,,0.00,weatherlink.com 1.10,2013-05-10 20:37:00,
2013-05-10 14:52:00,67.2,30.0,30.15,NNW,329,3.0,10.0,25,0.00,,,0.00,weatherlink.com 1.10,2013-05-10 20:52:00,
2013-05-10 15:07:00,66.8,33.0,30.15,NNW,341,3.0,9.0,28,0.00,,,0.00,weatherlink.com 1.10,2013-05-10 21:07:00,
2013-05-10 15:22:00,66.1,32.0,30.15,WNW,296,6.0,6.0,28,0.00,,,0.00,weatherlink.com 1.10,2013-05-10 21:22:00,
2013-05-10 15:37:00,68.4,33.0,30.14,NW,321,3.0,9.0,27,0.00,,,0.00,weatherlink.com 1.10,2013-05-10 21:37:00,
2013-05-10 15:52:00,67.5,33.0,30.15,NNE,28,1.0,7.0,28,0.00,,,0.00,weatherlink.com 1.10,2013-05-10 21:52:00,
2013-05-10 16:07:00,66.3,33.0,30.17,NW,324,9.0,17.0,29,0.00,,,0.00,weatherlink.com 1.10,2013-05-10 22:07:00,
2013-05-10 16:22:00,61.0,38.0,30.19,NW,319,12.0,22.0,43,0.00,,,0.00,weatherlink.com 1.10,2013-05-10 22:22:00,
2013-05-10 16:37:00,60.9,38.0,30.20,NW,321,1.0,23.0,43,0.00,,,0.00,weatherlink.com 1.10,2013-05-10 22:37:00,
2013-05-10 16:52:00,61.0,38.0,30.21,WNW,284,2.0,11.0,43,0.00,,,0.00,weatherlink.com 1.10,2013-05-10 22:52:00,
2013-05-10 17:07:00,59.5,39.0,30.21,NW,311,5.0,9.0,47,0.00,,,0.00,weatherlink.com 1.10,2013-05-10 23:07:00,
2013-05-10 17:22:00,58.7,39.0,30.21,West,281,5.0,11.0,49,0.00,,,0.00,weatherlink.com 1.10,2013-05-10 23:22:00,
2013-05-10 17:37:00,59.4,40.0,30.20,NW,317,4.0,8.0,49,0.00,,,0.00,weatherlink.com 1.10,2013-05-10 23:37:00,
2013-05-10 17:52:00,59.6,40.0,30.21,NW,325,3.0,9.0,49,0.00,,,0.00,weatherlink.com 1.10,2013-05-10 23:52:00,
2013-05-10 18:07:00,58.0,41.0,30.23,WSW,244,5.0,12.0,54,0.00,,,0.00,weatherlink.com 1.10,2013-05-11 00:07:00,
2013-05-10 18:22:00,56.5,45.0,30.25,NW,313,3.0,8.0,65,0.00,,,0.00,weatherlink.com 1.10,2013-05-11 00:22:00,
2013-05-10 18:37:00,51.4,45.0,30.23,West,279,1.0,9.0,79,0.03,,,0.03,weatherlink.com 1.10,2013-05-11 00:37:00,
2013-05-10 18:52:00,51.0,46.0,30.23,WNW,285,2.0,2.0,84,0.03,,,0.03,weatherlink.com 1.10,2013-05-11 00:52:00,
2013-05-10 19:07:00,51.9,46.0,30.23,NNW,340,0.0,4.0,80,0.03,,,0.03,weatherlink.com 1.10,2013-05-11 01:07:00,
2013-05-10 19:22:00,52.2,45.0,30.23,WNW,292,2.0,4.0,76,0.03,,,0.03,weatherlink.com 1.10,2013-05-11 01:22:00,
2013-05-10 19:37:00,52.3,44.0,30.23,WNW,288,1.0,7.0,73,0.00,,,0.03,weatherlink.com 1.10,2013-05-11 01:37:00,
2013-05-10 19:52:00,52.3,43.0,30.24,WNW,298,1.0,5.0,71,0.00,,,0.03,weatherlink.com 1.10,2013-05-11 01:52:00,
2013-05-10 20:07:00,52.4,42.0,30.25,NW,310,5.0,6.0,69,0.00,,,0.03,weatherlink.com 1.10,2013-05-11 02:07:00,
2013-05-10 20:22:00,52.1,43.0,30.26,NW,319,0.0,5.0,70,0.00,,,0.03,weatherlink.com 1.10,2013-05-11 02:22:00,
2013-05-10 20:37:00,51.0,43.0,30.27,NNE,26,0.0,5.0,75,0.00,,,0.03,weatherlink.com 1.10,2013-05-11 02:37:00,
2013-05-10 20:52:00,50.0,42.0,30.28,NW,318,1.0,7.0,73,0.00,,,0.03,weatherlink.com 1.10,2013-05-11 02:52:00,
2013-05-10 21:07:00,49.6,41.0,30.30,NW,304,4.0,4.0,71,0.00,,,0.03,weatherlink.com 1.10,2013-05-11 03:07:00,
2013-05-10 21:22:00,49.3,39.0,30.30,NNW,343,2.0,7.0,67,0.00,,,0.03,weatherlink.com 1.10,2013-05-11 03:22:00,
2013-05-10 21:37:00,48.9,36.0,30.31,NW,311,3.0,10.0,61,0.00,,,0.03,weatherlink.com 1.10,2013-05-11 03:37:00,
2013-05-10 21:52:00,48.6,34.0,30.32,WNW,288,3.0,10.0,58,0.00,,,0.03,weatherlink.com 1.10,2013-05-11 03:52:00,
2013-05-10 22:07:00,48.2,33.0,30.33,NNW,330,5.0,7.0,57,0.00,,,0.03,weatherlink.com 1.10,2013-05-11 04:07:00,
2013-05-10 22:22:00,47.9,31.0,30.33,NW,325,3.0,8.0,53,0.00,,,0.03,weatherlink.com 1.10,2013-05-11 04:22:00,
2013-05-10 22:38:00,47.7,30.0,30.34,NW,316,4.0,7.0,50,0.00,,,0.03,weatherlink.com 1.10,2013-05-11 04:38:00,
2013-05-10 22:53:00,47.7,29.0,30.34,NNW,340,3.0,7.0,49,0.00,,,0.03,weatherlink.com 1.10,2013-05-11 04:53:00,
2013-05-10 23:08:00,47.4,28.0,30.34,NNW,341,0.0,8.0,48,0.00,,,0.03,weatherlink.com 1.10,2013-05-11 05:08:00,
2013-05-10 23:23:00,47.0,27.0,30.35,NNW,343,2.0,9.0,46,0.00,,,0.03,weatherlink.com 1.10,2013-05-11 05:23:00,
2013-05-10 23:38:00,46.3,27.0,30.35,North,355,5.0,7.0,48,0.00,,,0.03,weatherlink.com 1.10,2013-05-11 05:38:00,
2013-05-10 23:53:00,46.0,28.0,30.36,NW,319,0.0,7.0,49,0.00,,,0.03,weatherlink.com 1.10,2013-05-11 05:53:00,